EW8599 Weather Reports


time (UTC)temp
F
wind
direction
speed
knots
gust
knots
rain 1hr
in
rain 24hr
in
rain mn
in
humidity
%
barometer
mb
20260506044620 49 265 0.0 0.0 0.00 0.16 0.00 86 998.3
20260506044357 50 265 0.0 0.0 0.00 0.16 0.00 86 998.5
20260506044349 50 265 0.0 0.0 0.00 0.00 0.00 86 998.6
20260506043846 50 265 0.0 0.0 0.00 0.00 0.00 86 998.6
20260506043615 50 265 0.0 0.0 0.00 0.16 0.00 86 998.6
20260506043343 50 265 0.0 0.0 0.00 0.00 0.00 86 998.6
20260506043120 50 265 0.0 0.0 0.00 0.16 0.00 86 998.6
20260506042841 50 265 0.0 0.0 0.00 0.00 0.00 86 998.6
20260506042615 50 265 0.0 0.0 0.00 0.16 0.00 86 998.6
20260506042340 50 265 0.0 0.0 0.00 0.00 0.00 86 998.6
20260506042115 50 265 0.0 0.0 0.00 0.16 0.00 86 998.6
20260506041838 51 265 0.0 0.0 0.00 0.00 0.00 86 998.6
20260506041614 51 265 0.0 0.0 0.00 0.16 0.00 86 998.5
20260506041335 51 265 0.0 0.0 0.00 0.00 0.00 86 998.6
20260506041109 51 265 0.0 0.0 0.00 0.16 0.00 86 998.4
20260506040840 51 265 0.0 0.0 0.00 0.16 0.00 86 998.4
20260506040832 51 265 0.0 0.0 0.00 0.00 0.00 86 998.6
20260506040329 51 265 0.0 0.0 0.00 0.00 0.00 86 998.2
20260506040105 51 265 0.0 0.0 0.00 0.16 0.00 86 998.2
20260506035825 51 265 0.0 0.0 0.00 0.00 0.00 86 998.2
20260506035606 51 265 0.0 0.0 0.00 0.16 0.00 86 998.3
20260506035323 51 265 0.0 0.0 0.00 0.00 0.00 85 998.6
20260506035106 51 265 0.0 0.0 0.00 0.16 0.00 85 998.4
20260506034820 51 265 0.0 0.0 0.00 0.00 0.00 85 998.6
20260506034605 51 265 0.0 0.0 0.00 0.16 0.00 85 998.5
20260506034317 51 265 0.0 0.0 0.00 0.00 0.00 85 998.6
20260506034106 51 265 0.0 0.0 0.00 0.16 0.00 85 998.4
20260506033814 51 265 0.0 0.0 0.00 0.00 0.00 85 998.6
20260506033606 51 265 0.0 0.0 0.00 0.16 0.00 85 998.6
20260506033340 52 265 0.0 0.0 0.00 0.16 0.00 85 998.6
20260506033311 52 265 0.0 0.0 0.00 0.00 0.00 85 998.6
20260506032808 52 265 0.0 0.0 0.00 0.00 0.00 85 998.6
20260506032613 52 265 0.0 0.0 0.00 0.16 0.00 85 998.5
20260506032306 52 265 0.0 0.0 0.00 0.00 0.00 85 998.9
20260506032105 52 265 0.0 0.0 0.00 0.16 0.00 85 998.7
20260506031801 52 265 0.0 0.0 0.00 0.00 0.00 85 998.9
20260506031605 52 265 0.0 0.0 0.00 0.16 0.00 85 998.8
20260506031259 52 265 0.0 0.0 0.00 0.00 0.00 85 998.9
20260506031103 52 265 0.0 0.0 0.00 0.16 0.00 85 998.8
20260506030756 52 265 0.0 0.0 0.00 0.00 0.00 85 998.9
20260506030603 52 275 0.0 0.0 0.00 0.16 0.00 85 998.9
20260506030254 52 275 0.0 0.0 0.00 0.00 0.00 85 998.9
20260506030106 52 275 0.0 0.0 0.00 0.16 0.00 85 998.8
20260506025751 52 275 0.0 0.0 0.00 0.00 0.00 84 998.9
20260506025603 52 275 0.0 0.0 0.00 0.16 0.00 84 998.9
20260506025247 53 275 0.0 0.0 0.00 0.00 0.00 84 998.9
20260506025105 53 275 0.0 0.0 0.00 0.16 0.00 84 998.8
20260506024744 53 275 0.0 0.0 0.00 0.00 0.00 84 998.9
20260506024605 53 275 0.0 0.0 0.00 0.16 0.00 84 998.9
20260506024241 53 275 0.0 0.0 0.00 0.00 0.00 84 998.9
20260506024103 53 275 0.0 0.0 0.00 0.16 0.00 84 998.8
20260506023737 53 275 0.0 0.0 0.00 0.00 0.00 84 998.9
20260506023602 53 275 0.0 0.0 0.00 0.16 0.00 84 998.9
20260506023234 53 275 0.0 0.0 0.00 0.00 0.00 84 999.2
20260506023107 53 275 0.0 0.0 0.00 0.16 0.00 83 999.0
20260506022731 53 275 0.0 0.0 0.00 0.00 0.00 83 999.2
20260506022605 53 275 0.0 0.0 0.00 0.16 0.00 83 999.1
20260506022229 53 275 0.0 0.0 0.00 0.00 0.00 83 999.2
20260506022101 53 275 0.0 0.0 0.00 0.16 0.00 83 999.1
20260506021726 53 275 0.0 0.0 0.00 0.00 0.00 83 999.2
20260506021559 53 275 0.0 0.0 0.00 0.16 0.00 83 999.2
20260506021224 53 283 0.0 0.0 0.00 0.00 0.00 83 999.2
20260506021058 53 283 0.0 0.0 0.00 0.16 0.00 83 999.2
20260506020720 53 283 0.0 0.0 0.00 0.00 0.00 82 999.2
20260506020559 53 283 0.0 0.0 0.00 0.16 0.00 82 999.0
20260506020218 53 283 0.0 0.0 0.00 0.00 0.00 82 999.2
20260506020056 53 283 0.0 0.0 0.00 0.16 0.00 82 999.1
20260506015715 54 283 0.0 0.0 0.00 0.00 0.00 82 998.9
20260506015553 54 281 0.0 0.0 0.00 0.16 0.00 82 998.8
20260506015341 54 294 0.0 0.0 0.00 0.16 0.00 82 998.6
20260506015213 54 294 0.0 0.0 0.00 0.00 0.00 82 998.6
20260506014710 54 294 0.0 0.0 0.00 0.00 0.00 82 998.6
20260506014550 54 294 0.0 0.0 0.00 0.16 0.00 82 998.5
20260506014206 54 284 0.0 0.0 0.00 0.00 0.00 81 998.6
20260506014051 54 284 0.0 0.0 0.00 0.16 0.00 81 998.5
20260506013820 55 289 0.0 0.0 0.00 0.16 0.00 81 998.4
20260506013704 55 288 0.0 0.0 0.00 0.00 0.00 81 998.6
20260506013201 55 301 0.0 0.0 0.00 0.00 0.00 81 998.6
20260506013047 55 301 0.0 0.0 0.00 0.16 0.00 81 998.2
20260506012657 55 275 0.0 0.0 0.00 0.00 0.00 81 998.2
20260506012544 55 273 0.0 0.0 0.00 0.16 0.00 81 998.3
20260506012153 55 331 0.0 0.0 0.00 0.00 0.00 81 998.6
20260506012041 55 331 0.0 0.0 0.00 0.16 0.00 81 998.3
20260506011651 55 351 0.0 0.0 0.00 0.00 0.00 80 998.2
20260506011539 56 246 0.0 0.0 0.00 0.16 0.00 80 998.2
20260506011147 56 265 0.0 0.0 0.00 0.00 0.00 80 998.2
20260506011039 56 264 0.0 0.0 0.00 0.16 0.00 80 998.1
20260506010646 56 266 0.0 0.0 0.00 0.00 0.00 80 998.2
20260506010537 56 266 0.0 0.0 0.00 0.16 0.00 80 998.1
20260506010143 57 273 0.0 0.0 0.00 0.00 0.00 80 998.2
20260506010037 56 227 0.0 0.0 0.00 0.16 0.00 80 998.0
20260506005639 57 306 0.0 0.0 0.00 0.00 0.00 80 997.9
20260506005535 57 285 0.0 0.0 0.00 0.16 0.00 80 997.9
20260506005136 57 46 0.0 0.0 0.00 0.00 0.00 80 997.9
20260506005031 57 327 0.0 0.0 0.00 0.16 0.00 80 997.8
20260506004632 58 338 0.0 0.0 0.00 0.00 0.00 81 997.9
20260506004551 58 269 0.0 0.0 0.00 0.16 0.00 82 997.7
20260506004547 58 309 0.0 0.0 0.00 0.16 0.00 82 997.7
20260506004130 58 269 0.0 0.0 0.00 0.00 0.00 82 997.9
20260506003626 59 286 0.0 0.0 0.00 0.00 0.00 84 997.9
20260506003532 59 275 0.0 0.0 0.00 0.16 0.00 84 997.8
20260506003122 60 320 0.0 0.0 0.00 0.00 0.00 87 997.9
20260506003027 60 319 0.0 0.0 0.00 0.16 0.00 87 997.8
20260506002618 60 53 0.0 0.0 0.00 0.00 0.00 88 997.6
20260506002529 60 51 0.0 0.0 0.00 0.16 0.00 88 997.6
20260506002114 61 36 0.0 0.0 0.00 0.00 0.00 89 997.6
20260506002028 61 36 0.0 0.0 0.00 0.16 0.00 89 997.6
20260506001611 61 178 0.0 0.0 0.00 0.00 0.00 89 997.2
20260506001526 61 178 0.0 0.0 0.00 0.16 0.00 89 997.1
20260506001108 61 179 0.0 0.0 0.00 0.00 0.00 89 997.6
20260506001025 61 179 0.0 0.0 0.00 0.16 0.00 89 997.3
20260506000606 61 178 0.0 0.0 0.00 0.00 0.00 88 997.2
20260506000524 61 178 0.0 0.0 0.00 0.16 0.00 88 997.1
20260506000023 61 247 0.0 0.0 0.00 0.16 0.00 88 997.2
20260505235601 61 247 0.0 0.0 0.00 0.00 0.00 88 996.9
20260505235524 61 247 0.0 0.0 0.00 0.16 0.00 88 996.9
20260505235057 62 160 0.0 0.0 0.00 0.00 0.00 88 996.9
20260505235019 62 160 0.0 0.0 0.00 0.16 0.00 88 996.8
20260505234554 62 160 0.0 0.0 0.00 0.00 0.00 88 996.9
20260505234531 62 160 0.0 0.0 0.00 0.16 0.00 88 996.8
20260505234051 62 160 0.0 0.0 0.00 0.00 0.00 87 996.5
20260505234017 62 160 0.0 0.0 0.00 0.16 0.00 87 996.6
20260505233549 62 160 0.0 0.0 0.00 0.00 0.00 87 996.5
20260505233519 62 160 0.0 0.0 0.00 0.16 0.00 87 996.4
20260505233046 62 160 0.0 0.0 0.00 0.00 0.00 87 996.2
20260505233018 62 160 0.0 0.0 0.00 0.16 0.00 87 996.2
20260505232544 62 160 0.0 0.0 0.00 0.00 0.00 87 996.2
20260505232513 62 160 0.0 0.0 0.00 0.16 0.00 87 996.0
20260505232041 62 160 0.0 0.0 0.00 0.00 0.00 87 996.2
20260505232015 62 160 0.0 0.0 0.00 0.16 0.00 87 996.0
20260505231537 62 160 0.0 0.0 0.00 0.00 0.00 87 996.2
20260505231508 62 160 0.0 0.0 0.00 0.16 0.00 87 996.0
20260505231036 62 160 0.0 0.0 0.00 0.00 0.00 86 996.2
20260505231011 62 160 0.0 0.0 0.00 0.16 0.00 86 995.9
20260505230533 62 160 0.0 0.0 0.00 0.00 0.00 86 995.9
20260505230520 62 160 0.0 0.0 0.00 0.16 0.00 86 995.8
20260505230030 63 160 0.0 0.0 0.00 0.00 0.00 86 995.9
20260505230009 63 160 0.0 0.0 0.00 0.16 0.00 86 995.6
20260505225743 63 160 0.0 0.0 0.00 0.16 0.00 85 995.6
20260505225526 63 160 0.0 0.0 0.00 0.00 0.00 85 995.9
20260505225022 63 160 0.0 0.0 0.00 0.00 0.00 84 995.4
20260505224955 63 160 0.0 0.0 0.00 0.16 0.00 85 995.4
20260505224727 63 160 0.0 0.0 0.00 0.16 0.00 83 995.5
20260505224519 63 160 0.0 0.0 0.00 0.00 0.00 83 995.9
20260505224016 64 161 0.0 0.0 0.00 0.00 0.00 81 995.4
20260505223942 64 161 0.0 0.0 0.00 0.16 0.00 81 995.5
20260505223514 65 105 0.0 0.0 0.00 0.00 0.00 79 995.4
20260505223439 65 105 0.0 0.0 0.00 0.16 0.00 79 995.4
20260505223009 66 126 0.0 0.0 0.00 0.00 0.00 76 995.4
20260505222939 66 126 0.0 0.0 0.00 0.16 0.00 77 995.3
20260505222501 67 159 0.0 0.0 0.00 0.00 0.00 75 995.4
20260505222439 67 147 0.0 0.0 0.00 0.16 0.00 74 995.4
20260505221956 67 135 0.0 0.0 0.00 0.00 0.00 73 995.4
20260505221937 67 137 0.0 0.0 0.00 0.16 0.00 73 995.5
20260505221454 68 150 0.0 0.0 0.00 0.00 0.00 74 995.4
20260505221436 68 156 0.0 0.0 0.00 0.16 0.00 74 995.3
20260505220951 69 138 0.0 0.0 0.00 0.00 0.00 81 995.4
20260505220931 69 275 0.0 0.0 0.00 0.16 0.00 81 995.2
20260505220448 69 169 0.0 0.0 0.00 0.00 0.00 82 995.1
20260505220430 69 169 0.0 0.0 0.00 0.16 0.00 82 994.9
20260505215945 70 169 0.0 0.0 0.00 0.00 0.00 83 994.7
20260505215932 70 169 0.0 0.0 0.00 0.16 0.00 83 994.7
20260505215444 70 169 0.0 0.0 0.00 0.00 0.00 82 994.7
20260505215431 70 169 0.0 0.0 0.00 0.16 0.00 82 994.7
20260505214941 70 169 0.0 0.0 0.00 0.00 0.00 83 994.7
20260505214930 70 169 0.0 0.0 0.00 0.16 0.00 83 994.5
20260505214438 70 169 0.0 0.0 0.00 0.00 0.00 82 994.7
20260505214432 70 169 0.0 0.0 0.00 0.16 0.00 82 994.6
20260505213939 69 169 0.0 0.0 0.00 0.16 0.00 83 994.6
20260505213936 69 169 0.0 0.0 0.00 0.00 0.00 83 994.7
20260505213433 69 169 0.0 0.0 0.00 0.00 0.00 83 994.7
20260505212932 69 169 0.0 0.0 0.00 0.16 0.00 83 994.7
20260505212929 69 169 0.0 0.0 0.00 0.00 0.00 83 994.7
20260505212432 69 169 0.0 0.0 0.00 0.16 0.00 83 994.6
20260505212427 69 169 0.0 0.0 0.00 0.00 0.00 83 994.7
20260505211931 69 169 0.0 0.0 0.00 0.16 0.00 83 994.6
20260505211923 69 169 0.0 0.0 0.00 0.00 0.00 83 994.7
20260505211433 68 170 0.0 0.0 0.00 0.16 0.00 83 994.5
20260505211420 68 170 0.0 0.0 0.00 0.00 0.00 83 994.7
20260505210932 68 171 0.0 0.0 0.01 0.16 0.00 84 994.5
20260505210917 68 171 0.0 0.0 0.01 0.00 0.00 84 994.4
20260505210431 68 172 0.0 0.0 0.01 0.16 0.00 85 994.4
20260505210414 68 165 0.0 0.0 0.01 0.00 0.00 85 994.7
20260505205926 67 165 0.0 0.0 0.01 0.16 0.00 85 994.4
20260505205911 68 165 0.0 0.0 0.01 0.00 0.00 85 994.4
20260505205421 67 174 0.0 0.0 0.01 0.16 0.00 86 994.4
20260505205409 67 174 0.0 0.0 0.01 0.00 0.00 86 994.4
20260505204919 67 174 0.0 0.0 0.01 0.16 0.00 87 994.5
20260505204906 67 181 0.0 0.0 0.01 0.00 0.00 87 994.7
20260505204418 67 92 0.0 0.0 0.01 0.16 0.00 88 994.5
20260505204403 67 92 0.0 0.0 0.01 0.00 0.00 88 994.7
20260505203919 67 124 0.0 0.0 0.02 0.16 0.00 88 994.7
20260505203900 67 124 0.0 0.0 0.02 0.00 0.00 88 994.7
20260505203417 66 123 0.0 0.0 0.02 0.16 0.00 88 994.7
20260505203357 66 123 0.0 0.0 0.02 0.00 0.00 88 994.7
20260505203200 66 170 0.0 0.0 0.02 0.16 0.00 88 994.7
20260505202853 66 170 0.0 0.0 0.03 0.00 0.00 88 994.7
20260505202415 66 170 0.0 0.0 0.03 0.16 0.00 88 994.8
20260505202349 66 176 0.0 0.0 0.03 0.00 0.00 88 994.7
20260505202159 66 173 0.0 0.0 0.04 0.16 0.00 89 994.8
20260505201846 66 173 0.0 0.0 0.04 0.00 0.00 90 994.7
20260505201415 65 178 0.0 0.0 0.04 0.16 0.00 90 994.9
20260505201343 65 144 0.0 0.0 0.04 0.00 0.00 90 995.1
20260505200919 65 142 0.0 0.0 0.04 0.15 0.00 90 995.1
20260505200842 65 142 0.0 0.0 0.04 0.00 0.00 90 995.4
20260505200416 65 143 0.0 0.0 0.05 0.15 0.00 90 995.2
20260505200338 65 143 0.0 0.0 0.05 0.00 0.00 90 995.4
20260505195912 64 143 0.0 0.0 0.05 0.15 0.00 88 995.3
20260505195834 64 143 0.0 0.0 0.05 0.00 0.00 88 995.4
20260505195645 64 144 0.0 0.0 0.05 0.15 0.00 88 995.4
20260505195331 64 144 0.0 0.0 0.05 0.00 0.00 88 995.4
20260505194913 64 144 0.0 0.0 0.05 0.15 0.00 87 995.4
20260505194828 64 144 0.0 0.0 0.06 0.00 0.00 87 995.4
20260505194412 64 143 0.0 0.0 0.07 0.15 0.00 86 995.7
20260505194326 64 143 0.0 0.0 0.07 0.00 0.00 86 995.9
20260505193913 64 143 0.0 0.0 0.08 0.14 0.00 85 996.0
20260505193821 64 143 0.0 0.0 0.08 0.00 0.00 84 996.2
20260505193413 65 143 0.0 0.0 0.09 0.14 0.00 83 996.0
20260505193319 65 144 0.0 0.0 0.09 0.00 0.00 83 996.2
20260505193149 65 163 0.0 0.0 0.09 0.14 0.00 82 995.9
20260505192816 66 163 0.0 0.0 0.08 0.00 0.00 82 996.2
20260505192412 66 109 0.0 0.0 0.08 0.13 0.00 81 995.9
20260505192315 67 124 0.0 0.0 0.08 0.00 0.00 81 996.2
20260505192155 67 224 0.0 0.0 0.07 0.12 0.00 80 996.0
20260505191812 68 225 0.0 0.0 0.07 0.00 0.00 79 996.2
20260505191412 68 224 0.0 0.0 0.07 0.12 0.00 79 995.8
20260505191310 68 224 0.0 0.0 0.07 0.00 0.00 78 995.9
20260505190914 69 224 0.0 0.0 0.06 0.11 0.00 76 995.8
20260505190807 69 224 0.0 0.0 0.06 0.00 0.00 76 995.9
20260505190412 69 224 0.0 0.0 0.05 0.10 0.00 74 995.7
20260505190302 70 224 0.0 0.0 0.05 0.00 0.00 73 995.9
20260505185914 71 225 0.0 0.0 0.05 0.10 0.00 73 995.3
20260505185758 71 225 0.0 0.0 0.05 0.00 0.00 73 995.4
20260505185413 72 225 0.0 0.0 0.05 0.10 0.00 71 994.9
20260505185254 72 225 0.0 0.0 0.05 0.00 0.00 70 995.1
20260505184908 72 225 0.0 0.0 0.05 0.10 0.00 69 994.9
20260505184750 73 225 0.0 0.0 0.04 0.00 0.00 67 994.7
20260505184408 74 224 0.0 0.0 0.03 0.08 0.00 63 994.7
20260505184248 74 227 0.0 0.0 0.03 0.00 0.00 60 994.7
20260505183908 75 328 0.0 0.0 0.01 0.06 0.00 55 994.6
20260505183745 75 310 0.0 0.0 0.01 0.00 0.00 53 994.7
20260505183408 76 60 0.0 0.0 0.00 0.05 0.00 48 994.0
20260505183242 76 229 0.0 0.0 0.00 0.00 0.00 49 994.1
20260505182908 76 188 0.0 0.0 0.00 0.05 0.00 47 993.6
20260505182738 76 188 0.0 0.0 0.00 0.00 0.00 45 993.7
20260505182411 76 159 0.0 0.0 0.00 0.05 0.00 44 993.7
20260505182235 77 68 0.0 0.0 0.00 0.00 0.00 44 993.7
20260505181909 77 20 0.0 0.0 0.00 0.05 0.00 44 993.7
20260505181732 77 212 0.0 0.0 0.00 0.00 0.00 45 993.7
20260505181409 77 128 0.0 0.0 0.00 0.05 0.00 45 993.5
20260505181229 77 128 0.0 0.0 0.00 0.00 0.00 45 993.7
20260505180911 77 128 0.0 0.0 0.00 0.05 0.00 45 993.5
20260505180726 77 127 0.0 0.0 0.00 0.00 0.00 42 993.7
20260505180405 77 85 0.0 0.0 0.00 0.05 0.00 42 993.6
20260505180222 77 138 0.0 0.0 0.00 0.00 0.00 41 993.7
20260505175905 77 10 0.0 0.0 0.00 0.05 0.00 44 993.7
20260505175719 77 144 0.0 0.0 0.00 0.00 0.00 44 994.1
20260505175406 77 252 0.0 0.0 0.00 0.05 0.00 44 993.8
20260505175215 77 265 0.0 0.0 0.00 0.00 0.00 44 994.1
20260505174932 76 277 0.0 0.0 0.00 0.05 0.00 44 994.0
20260505174916 77 177 0.0 0.0 0.00 0.05 0.00 43 993.9
20260505174712 76 279 0.0 0.0 0.00 0.00 0.00 44 994.1
20260505174209 76 42 0.0 0.0 0.00 0.00 0.00 46 994.1
20260505173907 76 173 0.0 0.0 0.00 0.05 0.00 48 994.1
20260505173705 75 134 0.0 0.0 0.00 0.00 0.00 46 994.4
20260505173406 75 145 0.0 0.0 0.00 0.05 0.00 48 994.3
20260505173202 75 73 0.0 0.0 0.00 0.00 0.00 49 994.4
20260505172911 75 329 0.0 0.0 0.00 0.05 0.00 50 994.3
20260505172659 75 355 0.0 0.0 0.00 0.00 0.00 45 994.4
20260505172412 74 163 0.0 0.0 0.00 0.05 0.00 46 994.4
20260505172156 75 355 0.0 0.0 0.00 0.00 0.00 47 994.7
20260505171908 75 133 0.0 0.0 0.00 0.05 0.00 50 994.6
20260505171655 75 134 0.0 0.0 0.00 0.00 0.00 47 994.7
20260505171406 75 47 0.0 0.0 0.00 0.05 0.00 46 994.6
20260505171153 75 335 0.0 0.0 0.00 0.00 0.00 51 994.7
20260505171139 75 335 0.0 0.0 0.00 0.05 0.00 51 994.5
20260505170650 75 15 0.0 0.0 0.00 0.00 0.00 49 994.7
20260505170405 75 279 0.0 0.0 0.00 0.05 0.00 46 994.5
20260505170146 75 132 0.0 0.0 0.00 0.00 0.00 46 994.7
20260505165935 75 194 0.0 0.0 0.00 0.05 0.00 47 994.6
20260505165646 75 46 0.0 0.0 0.00 0.00 0.00 45 994.7
20260505165409 75 329 0.0 0.0 0.00 0.05 0.00 46 994.7
20260505165143 75 328 0.0 0.0 0.00 0.00 0.00 45 994.7
20260505164911 75 153 0.0 0.0 0.00 0.05 0.00 45 994.6
20260505164638 75 0 0.0 0.0 0.00 0.00 0.00 46 994.7
20260505164403 75 189 0.0 0.0 0.00 0.05 0.00 47 994.7
20260505164136 75 63 0.0 0.0 0.00 0.00 0.00 49 994.4
20260505163905 75 70 0.0 0.0 0.00 0.05 0.00 48 994.3
20260505163634 76 342 0.0 0.0 0.00 0.00 0.00 48 994.4
20260505163628 76 342 0.0 0.0 0.00 0.05 0.00 48 994.1
20260505163132 76 318 0.0 0.0 0.00 0.00 0.00 45 994.1
20260505162903 76 342 0.0 0.0 0.00 0.05 0.00 48 994.0
20260505162629 76 172 0.0 0.0 0.00 0.00 0.00 45 994.1
20260505162403 76 244 0.0 0.0 0.00 0.05 0.00 45 994.1
20260505162126 76 30 0.0 0.0 0.00 0.00 0.00 44 994.1
20260505161903 76 192 0.0 0.0 0.00 0.05 0.00 45 994.2
20260505161623 76 118 0.0 0.0 0.00 0.00 0.00 44 994.1
20260505161402 76 184 0.0 0.0 0.00 0.05 0.00 44 994.0
20260505161120 76 144 0.0 0.0 0.00 0.00 0.00 47 994.4
20260505160900 76 318 0.0 0.0 0.00 0.05 0.00 45 994.3
20260505160618 76 173 0.0 0.0 0.00 0.00 0.00 44 994.4
20260505160400 76 161 0.0 0.0 0.00 0.05 0.00 45 994.4
20260505160115 76 66 0.0 0.0 0.00 0.00 0.00 46 994.4
20260505153358 77 201 0.0 0.0 0.00 0.05 0.00 48 994.8
20260505153055 77 200 0.0 0.0 0.00 0.00 0.00 47 994.7
20260505152858 77 309 0.0 0.0 0.00 0.05 0.00 45 994.8
20260505152551 77 157 0.0 0.0 0.00 0.00 0.00 45 994.7
20260505152355 77 165 0.0 0.0 0.00 0.05 0.00 46 994.8
20260505152047 77 121 0.0 0.0 0.00 0.00 0.00 48 994.7
20260505151856 77 196 0.0 0.9 0.00 0.05 0.00 47 994.6
20260505151542 77 189 0.0 0.9 0.00 0.00 0.00 45 994.7
20260505151357 77 0 0.0 0.9 0.00 0.05 0.00 45 994.7
20260505151125 77 92 0.0 0.0 0.00 0.05 0.00 48 994.6
20260505151040 77 355 0.0 0.0 0.00 0.00 0.00 50 994.7
20260505150536 77 98 0.0 0.0 0.00 0.00 0.00 46 994.7
20260505150355 76 323 0.0 0.0 0.00 0.05 0.00 46 994.5
20260505140502 73 119 0.0 0.0 0.00 0.00 0.00 55 994.4
20260505140334 73 146 0.0 0.0 0.00 0.05 0.00 54 994.5
20260505124915 64 126 0.0 0.0 0.00 0.00 0.00 76 995.1
20260505124807 64 126 0.0 0.0 0.00 0.05 0.00 76 994.9
20260505124412 62 171 0.0 0.0 0.00 0.00 0.00 79 995.4
20260505124309 62 172 0.0 0.0 0.00 0.05 0.00 79 995.0
20260505123908 62 117 0.0 0.0 0.00 0.00 0.00 81 995.4
20260505123806 61 95 0.0 0.0 0.00 0.05 0.00 81 995.2
20260505123405 60 180 0.0 0.0 0.00 0.00 0.00 83 995.4
20260505123305 60 180 0.0 0.0 0.00 0.05 0.00 83 995.4
20260505122900 60 159 0.0 0.0 0.00 0.00 0.00 85 995.4
20260505122805 60 139 0.0 0.0 0.00 0.05 0.00 85 995.4
20260505122358 59 42 0.0 0.0 0.00 0.00 0.00 86 995.4
20260505122305 59 198 0.0 0.0 0.00 0.05 0.00 86 995.4
20260505121855 59 164 0.0 0.0 0.00 0.00 0.00 87 995.4
20260505121804 58 134 0.0 0.0 0.00 0.05 0.00 87 995.4
20260505121352 58 171 0.0 0.0 0.00 0.00 0.00 87 995.9
20260505121305 58 180 0.0 0.0 0.00 0.05 0.00 87 995.6
20260505120847 57 171 0.0 0.0 0.00 0.00 0.00 88 995.4
20260505120803 57 169 0.0 0.0 0.00 0.05 0.00 88 995.4
20260505120344 57 192 0.0 0.0 0.00 0.00 0.00 88 995.9
20260505120304 57 192 0.0 0.0 0.00 0.05 0.00 88 995.5
20260505115843 57 165 0.0 0.0 0.00 0.00 0.00 89 995.9
20260505115803 57 165 0.0 0.0 0.00 0.05 0.00 89 995.5
20260505115340 57 142 0.0 0.9 0.00 0.00 0.00 90 995.4
20260505115313 57 142 0.0 0.9 0.00 0.05 0.00 90 995.4
20260505114838 57 171 0.0 0.9 0.00 0.00 0.00 91 995.4
20260505114804 56 157 0.0 0.9 0.00 0.05 0.00 91 995.3
20260505114334 56 109 0.0 0.0 0.00 0.00 0.00 91 995.4
20260505114304 56 109 0.0 0.0 0.00 0.05 0.00 91 995.3
20260505113830 56 158 0.0 0.0 0.00 0.00 0.00 91 995.4
20260505113802 56 164 0.0 0.0 0.00 0.05 0.00 91 995.3
20260505113327 56 148 0.0 0.0 0.00 0.00 0.00 92 995.4
20260505113302 56 148 0.0 0.0 0.00 0.05 0.00 92 995.4
20260505112823 56 148 0.0 0.0 0.00 0.00 0.00 92 995.4
20260505112803 56 148 0.0 0.0 0.00 0.05 0.00 92 995.3
20260505112320 55 71 0.0 0.0 0.00 0.00 0.00 91 995.4
20260505112305 55 71 0.0 0.0 0.00 0.05 0.00 91 995.2
20260505112036 55 172 0.0 0.0 0.00 0.05 0.00 91 995.1
20260505111816 55 173 0.0 0.0 0.00 0.00 0.00 91 995.1
20260505111536 55 131 0.0 0.0 0.00 0.05 0.00 91 995.1
20260505111312 55 131 0.0 0.0 0.00 0.00 0.00 91 995.1
20260505111032 55 175 0.0 0.0 0.00 0.05 0.00 91 995.2
20260505110808 55 162 0.0 0.0 0.00 0.00 0.00 91 995.4
20260505110306 55 161 0.0 0.0 0.01 0.00 0.00 90 995.1
20260505110259 55 157 0.0 0.0 0.01 0.05 0.00 90 995.1
20260505101749 57 74 0.0 0.0 0.05 0.05 0.00 87 994.6
20260505101739 57 74 0.0 0.0 0.05 0.00 0.00 87 994.7
20260505101250 57 74 0.0 0.0 0.05 0.05 0.00 86 994.5
20260505101235 57 74 0.0 0.0 0.05 0.00 0.00 86 994.7
20260505101017 57 74 0.0 0.0 0.05 0.05 0.00 86 994.5
20260505100732 57 74 0.0 0.0 0.05 0.00 0.00 86 994.7
20260505100250 57 69 0.0 0.0 0.04 0.04 0.00 86 994.7
20260505100229 57 63 0.0 0.0 0.04 0.00 0.00 86 994.7
20260505095753 57 105 0.0 0.0 0.03 0.03 0.00 85 995.2
20260505095724 57 158 0.0 0.0 0.02 0.00 0.00 85 995.4
20260505095530 56 38 0.0 0.0 0.00 0.00 0.00 82 996.0
20260505095222 55 281 0.0 0.0 0.00 0.00 0.00 81 996.2
20260505094750 55 105 0.0 0.0 0.00 0.00 0.00 78 995.6
20260505094717 55 105 0.0 0.0 0.00 0.00 0.00 78 995.9
20260505094249 55 103 0.0 0.0 0.00 0.00 0.00 79 995.2
20260505094214 55 159 0.0 0.0 0.00 0.00 0.00 78 995.1
20260505094024 54 147 0.0 0.0 0.00 0.00 0.00 79 995.0
20260505093710 54 142 0.0 0.0 0.00 0.00 0.00 79 995.1
20260505093250 54 146 0.0 0.0 0.00 0.00 0.00 78 994.9
20260505093208 54 146 0.0 0.0 0.00 0.00 0.00 78 994.7
20260505092747 54 152 0.0 0.0 0.00 0.00 0.00 78 994.8
20260505092704 54 152 0.0 0.0 0.00 0.00 0.00 78 994.7
20260505092246 54 153 0.0 0.0 0.00 0.00 0.00 77 994.7
20260505092204 54 153 0.0 0.0 0.00 0.00 0.00 77 994.7
20260505091743 54 150 0.0 0.0 0.00 0.00 0.00 77 994.7
20260505091700 55 149 0.0 0.0 0.00 0.00 0.00 77 994.7
20260505091245 55 144 0.0 0.0 0.00 0.00 0.00 77 994.7
20260505091158 55 144 0.0 0.0 0.00 0.00 0.00 76 994.7
20260505090744 55 146 0.0 0.0 0.00 0.00 0.00 76 994.6
20260505090655 55 146 0.0 0.0 0.00 0.00 0.00 76 994.7
20260505090245 55 145 0.0 0.0 0.00 0.00 0.00 76 994.6
20260505090154 55 200 0.0 0.0 0.00 0.00 0.00 75 994.7
20260505090026 55 200 0.0 0.0 0.00 0.00 0.00 75 994.5
20260505085650 55 200 0.0 0.0 0.00 0.00 0.00 75 994.7
20260505085245 55 82 0.0 0.0 0.00 0.00 0.00 75 994.4
20260505085149 55 82 0.0 0.0 0.00 0.00 0.00 75 994.4
20260505084745 55 84 0.0 0.0 0.00 0.00 0.00 75 994.3
20260505084646 55 105 0.0 0.0 0.00 0.00 0.00 74 994.4
20260505084527 55 105 0.0 0.0 0.00 0.00 0.00 74 994.3
20260505084145 56 105 0.0 0.0 0.00 0.00 0.00 74 994.4
20260505083739 56 105 0.0 0.0 0.00 0.00 0.00 74 994.3
20260505083642 56 105 0.0 0.0 0.00 0.00 0.00 74 994.4
20260505083239 56 100 0.0 0.0 0.00 0.00 0.00 73 994.3
20260505083138 56 101 0.0 0.0 0.00 0.00 0.00 73 994.4
20260505082739 56 98 0.0 0.0 0.00 0.00 0.00 72 994.3
20260505082634 57 98 0.0 0.0 0.00 0.00 0.00 72 994.4
20260505082237 56 98 0.0 0.0 0.00 0.00 0.00 73 994.3
20260505082131 57 98 0.0 0.0 0.00 0.00 0.00 72 994.4
20260505081739 57 109 0.0 0.0 0.00 0.00 0.00 72 994.4
20260505081627 57 130 0.0 0.0 0.00 0.00 0.00 72 994.4
20260505081238 57 130 0.0 0.0 0.00 0.00 0.00 72 994.4
20260505081125 57 65 0.0 0.0 0.00 0.00 0.00 73 994.4
20260505080738 57 106 0.0 0.0 0.00 0.00 0.00 73 994.3
20260505080621 57 105 0.0 0.0 0.00 0.00 0.00 72 994.4
20260505080238 57 137 0.0 0.0 0.00 0.00 0.00 72 994.3
20260505080117 57 165 0.0 0.0 0.00 0.00 0.00 73 994.4
20260505075737 57 155 0.0 0.0 0.00 0.00 0.00 73 994.3
20260505075614 57 155 0.0 0.0 0.00 0.00 0.00 73 994.4
20260505075237 57 159 0.0 0.0 0.00 0.00 0.00 73 994.3
20260505075110 57 131 0.0 0.0 0.00 0.00 0.00 73 994.4
20260505074737 57 95 0.0 0.0 0.00 0.00 0.00 73 994.3
20260505074607 57 94 0.0 0.0 0.00 0.00 0.00 73 994.4
20260505074237 57 94 0.0 0.0 0.00 0.00 0.00 73 994.3
20260505074104 57 56 0.0 0.0 0.00 0.00 0.00 73 994.4
20260505074016 57 111 0.0 0.0 0.00 0.00 0.00 73 994.3
20260505073602 57 172 0.0 0.0 0.00 0.00 0.00 73 994.4
20260505073237 56 196 0.0 0.0 0.00 0.00 0.00 74 994.3
20260505073100 56 201 0.0 0.0 0.00 0.00 0.00 74 994.4
20260505072746 56 153 0.0 0.0 0.00 0.00 0.00 74 994.2
20260505072555 56 158 0.0 0.0 0.00 0.00 0.00 75 994.4
20260505072243 56 150 0.0 0.0 0.00 0.00 0.00 75 994.2
20260505072052 55 167 0.0 0.0 0.00 0.00 0.00 75 994.4
20260505071743 55 150 0.0 0.0 0.00 0.00 0.00 76 994.2
20260505071548 55 163 0.0 0.0 0.00 0.00 0.00 76 994.4
20260505071243 55 97 0.0 0.0 0.00 0.00 0.00 76 994.3
20260505071046 55 157 0.0 0.0 0.00 0.00 0.00 77 994.4
20260505070741 55 191 0.0 0.0 0.00 0.00 0.00 77 994.2
20260505070543 55 141 0.0 0.0 0.00 0.00 0.00 77 994.4
20260505070520 55 131 0.0 0.0 0.00 0.00 0.00 77 994.3
20260505070039 55 131 0.0 0.0 0.00 0.00 0.00 77 994.4
20260505065740 55 132 0.0 0.0 0.00 0.00 0.00 77 994.4
20260505065535 55 141 0.0 0.0 0.00 0.00 0.00 78 994.4
20260505065237 54 141 0.0 0.0 0.00 0.00 0.00 78 994.4
20260505065032 54 167 0.0 0.0 0.00 0.00 0.00 78 994.7
20260505064738 54 169 0.0 0.0 0.00 0.00 0.00 78 994.5
20260505064528 54 163 0.0 0.0 0.00 0.00 0.00 79 994.7
20260505064237 54 163 0.0 0.0 0.00 0.00 0.00 79 994.6
20260505064027 54 162 0.0 0.0 0.00 0.00 0.00 78 994.7
20260505063735 54 162 0.0 0.0 0.00 0.00 0.00 78 994.6
20260505063524 54 261 0.0 0.0 0.00 0.00 0.00 78 994.7
20260505063236 54 262 0.0 0.0 0.00 0.00 0.00 78 994.6
20260505063020 54 262 0.0 0.0 0.00 0.00 0.00 78 994.7
20260505062731 54 263 0.0 0.0 0.00 0.00 0.00 78 994.6
20260505062524 54 263 0.0 0.0 0.00 0.00 0.00 77 994.6
20260505062517 54 263 0.0 0.0 0.00 0.00 0.00 77 994.7
20260505062014 54 263 0.0 0.0 0.00 0.00 0.00 77 994.7
20260505061729 54 263 0.0 0.0 0.00 0.00 0.00 76 994.6
20260505061511 54 263 0.0 0.0 0.00 0.00 0.00 76 994.7
20260505061227 54 267 0.0 0.0 0.00 0.00 0.00 76 994.6
20260505061009 54 267 0.0 0.0 0.00 0.00 0.00 76 994.7
20260505060718 54 267 0.0 0.0 0.00 0.00 0.00 76 994.6
20260505060506 54 155 0.0 0.0 0.00 0.00 0.00 76 994.7
20260505060211 55 168 0.0 0.0 0.00 0.00 0.00 75 994.5
20260505060002 55 168 0.0 0.0 0.00 0.00 0.00 75 994.7
20260505055711 55 168 0.0 0.0 0.00 0.00 0.00 75 994.5
20260505055458 55 168 0.0 0.0 0.00 0.00 0.00 75 994.7
20260505055453 55 168 0.0 0.0 0.00 0.00 0.00 75 994.6
20260505054955 55 168 0.0 0.0 0.00 0.00 0.00 75 994.7
20260505054713 55 168 0.0 0.0 0.00 0.00 0.00 75 994.6
20260505054453 55 159 0.0 0.0 0.00 0.00 0.00 74 994.7
20260505054212 55 153 0.0 0.0 0.00 0.00 0.00 74 994.6
20260505053950 55 128 0.0 0.0 0.00 0.00 0.00 74 994.7
20260505053713 55 128 0.0 0.0 0.00 0.00 0.00 74 994.6
20260505053447 55 128 0.0 0.0 0.00 0.00 0.00 74 994.7
20260505053210 55 127 0.0 0.0 0.00 0.00 0.00 74 994.6
20260505052944 55 171 0.0 0.0 0.00 0.00 0.00 74 994.7
20260505052441 55 173 0.0 0.0 0.00 0.00 0.00 75 994.7
20260505052206 55 173 0.0 0.0 0.00 0.00 0.00 75 994.7
20260505051938 55 173 0.0 0.0 0.00 0.00 0.00 75 994.7
20260505051708 55 173 0.0 0.0 0.00 0.00 0.00 75 994.7
20260505051435 55 173 0.0 0.0 0.00 0.00 0.00 75 994.7
20260505051207 55 173 0.0 0.0 0.00 0.00 0.00 75 994.7
20260505050933 55 175 0.0 0.0 0.00 0.00 0.00 76 994.7
20260505050703 54 142 0.0 0.0 0.00 0.00 0.00 76 994.7
20260505050431 54 141 0.0 0.0 0.00 0.00 0.00 76 994.7
20260505050203 54 144 0.0 0.0 0.00 0.00 0.00 76 994.7